007  
NZUS01 KOTX 250025  
RWROTX  
 
EASTERN WASHINGTON/NORTHERN IDAHO ROUNDUP  
NATIONAL WEATHER SERVICE, SPOKANE WA  
500 PM PDT TUE APR 24 2018  
 
NOTE: "FAIR" INDICATED FEW OR NO CLOUDS BELOW 12,000 FEET WITH NO  
SIGNIFICANT WEATHER AND/OR S TO VISIBILITY
.  
   
..NORTHEAST WASHINGTON AND NORTHERN IDAHO PANHANDLE
 
 
 
CITY SKY/WX TMP DP RH WIND PRES REMARKS
 
SPOKANE INTL MOSUNNY 69 29 22 E6 30.20F  
SPOKANE DOWNTO SUNNY 71 29 21 W5 30.19F  
COEUR D ALENE SUNNY 71 24 17 S7 30.19F  
DEER PARK SUNNY 68 22 17 CALM 30.20F  
SANDPOINT SUNNY 68 25 19 E6 30.19F  
BONNERS FERRY FAIR 68 21 17 S3 30.18F  
   
..SOUTHEAST WASHINGTON AND SOUTHERN IDAHO PANHANDLE
 
 
 
CITY SKY/WX TMP DP RH WIND PRES REMARKS
 
WALLA WALLA SUNNY 74 43 32 NE12 30.12F  
PULLMAN/MOSCOW SUNNY 69 33 26 SE13 30.21F  
LEWISTON SUNNY 76 36 23 NE9 30.14F  
LOWELL N/A 69 35 28 CALM 30.14F  
GRANGEVILLE FAIR 64 36 34 N5 30.21F  
   
..COLUMBIA BASIN
 
 
 
CITY SKY/WX TMP DP RH WIND PRES REMARKS
 
EPHRATA MOSUNNY 71 29 21 NE5 30.16F  
MOSES LAKE MOSUNNY 73 28 18 S9 30.17F  
PASCO SUNNY 76 43 30 NW9 30.13F  
RICHLAND PTCLDY 77 33 20 NW5 30.12F  
HERMISTON SUNNY 77 39 25 NE9 30.11F  
PENDLETON SUNNY 74 38 27 N15G21 30.11F  
   
..EAST SLOPES CASCADES
 
 
 
CITY SKY/WX TMP DP RH WIND PRES REMARKS
 
THE DALLES SUNNY 79 32 18 E14 30.08F  
YAKIMA SUNNY 73 28 18 VRB5 30.16F  
ELLENSBURG MOSUNNY 71 31 22 SE10 30.17F  
WENATCHEE MOSUNNY 69 29 22 SE6 30.16F  
WINTHROP FAIR 69 29 22 S7 30.19F  
OMAK MOSUNNY 70 32 24 SW5 30.18F  
SUNNYSIDE CLEAR 72 33 24 CALM 30.14F  
   
..SOUTHERN BRITISH COLUMBIA
 
 
 
CITY SKY/WX TMP DP RH WIND PRES REMARKS
 
PENTICTON PTSUNNY 72 27 18 S14 30.13F  
CASTLEGAR PTSUNNY 73 21 14 S5 30.15F  
CRANBROOK PTSUNNY 66 23 19 E10 30.19F  
OSOYOOS N/A 72 30 21 S7 N/A  
CRESTON N/A 72 32 23 W2 N/A  
   
..WESTERN MONTANA
 
 
 
CITY SKY/WX TMP DP RH WIND PRES REMARKS
 
KALISPELL CLEAR 64 16 15 S12 30.25F  
MISSOULA SUNNY 66 23 19 SE9 30.25F  
   
..NEIGHBORING CITIES
 
 
 
CITY SKY/WX TMP DP RH WIND PRES REMARKS
 
SEATTLE PTSUNNY 75 37 25 N14 30.07F  
PORTLAND PTSUNNY 79 38 22 E14 29.98F  
BOISE SUNNY 68 28 22 SE8 30.22F  
GREAT FALLS SUNNY 64 19 17 SW12G23 30.24F  
CALGARY CLOUDY 64 3 9 W5 30.08F  
 
CLICK HERE TO GO TO PREVIOUS BULLETINS.

The Nexlab WA Page
The Nexlab ID Page Main Text Page